Location: Biharia
(46.4333°N, 22.8000°E)
Time: 18:34:32
(UTC+00:00)

Cosmos 1536 Rocket - Visible Passes

Search period start: 11 August 2022 00:00
Search period end: 21 August 2022 00:00
Orbit: 605 x 631 km, 82.5° (Epoch: 11 August)

Date Brightness Start Highest point End Pass type
(mag) Time Alt. Az. Time Alt. Az. Time Alt. Az.
11 Aug 4.1 01:34:42 10° N 01:39:08 60° E 01:43:28 10° SSE visible
12 Aug 6.5 00:15:53 10° NE 00:17:47 12° ENE 00:19:40 10° E visible
12 Aug 3.5 01:51:47 10° NNW 01:56:15 76° W 02:00:38 10° S visible
13 Aug 6.0 00:31:50 10° NNE 00:35:12 21° ENE 00:38:32 10° ESE visible
13 Aug 4.0 02:09:04 10° NNW 02:13:16 42° W 02:17:24 10° SSW visible
14 Aug 5.1 00:48:26 10° N 00:52:32 34° ENE 00:56:33 10° SE visible
14 Aug 4.8 02:26:38 10° NW 02:30:11 24° W 02:33:43 10° SW visible
15 Aug 4.0 01:05:19 10° N 01:09:45 61° E 01:12:49 19° SSE visible
15 Aug 5.4 02:44:45 10° NW 02:47:02 14° W 02:49:16 10° WSW visible
15 Aug 6.4 23:46:25 10° NE 23:48:25 13° ENE 23:50:23 10° E visible
16 Aug 3.4 01:22:24 10° NNW 01:26:51 74° W 01:29:03 29° S visible
17 Aug 5.8 00:02:26 10° NNE 00:05:50 21° ENE 00:08:16 14° ESE visible
17 Aug 4.0 01:39:42 10° NNW 01:43:52 40° W 01:45:21 30° SW visible
18 Aug 4.9 00:19:03 10° N 00:23:08 35° ENE 00:24:38 27° ESE visible
18 Aug 4.8 01:57:17 10° NW 02:00:47 23° W 02:01:44 22° WSW visible
19 Aug 3.9 00:35:56 10° N 00:40:21 63° E 00:41:04 54° SE visible
19 Aug 5.4 02:15:28 10° NW 02:17:37 13° W 02:18:09 13° W visible
19 Aug 6.2 23:16:59 10° NE 23:19:01 13° ENE 23:20:25 11° E visible
20 Aug 3.4 00:53:02 10° NNW 00:57:27 72° W 00:57:32 72° WSW visible
20 Aug 5.6 23:33:01 10° NNE 23:36:26 21° ENE 23:36:56 21° E visible
